This is the latest recevied weather packets stored in our database for station/object DO1YM-13. If no packets are shown the sender has not sent any weather packets the latest 10 day(s).
| Time | Temp. | Humidity | Pressure | Rain* | Wind** | Luminosity | Snow |
|---|---|---|---|---|---|---|---|
| 1787484647 | 17.22° C | 63% | 1016.6 hPa | 0 mm | - | 113 W/m² | - |
| 1787484347 | 17.22° C | 63% | 1016.6 hPa | 0 mm | - | 125 W/m² | - |
| 1787484047 | 17.22° C | 63% | 1016.3 hPa | 0 mm | - | 90 W/m² | - |
| 1787483747 | 17.22° C | 62% | 1016.3 hPa | 0 mm | - | 52 W/m² | - |
| 1787483448 | 17.22° C | 60% | 1016.3 hPa | 0 mm | - | 45 W/m² | - |
| 1787483148 | 17.78° C | 60% | 1016.3 hPa | 0 mm | - | 66 W/m² | - |
| 1787482847 | 17.78° C | 61% | 1016.3 hPa | 0 mm | - | 152 W/m² | - |
| 1787482548 | 17.78° C | 61% | 1015.9 hPa | 0 mm | - | 166 W/m² | - |
| 1787482248 | 17.78° C | 62% | 1016.3 hPa | 0 mm | - | 168 W/m² | - |
| 1787481947 | 17.78° C | 59% | 1015.9 hPa | 0 mm | - | 157 W/m² | - |
| 1787481648 | 17.78° C | 60% | 1016.6 hPa | 0 mm | - | 175 W/m² | - |
| 1787481348 | 17.78° C | 61% | 1016.3 hPa | 0 mm | - | 240 W/m² | - |
| 1787481047 | 17.78° C | 63% | 1015.9 hPa | 0 mm | - | 249 W/m² | - |
| 1787480747 | 17.22° C | 64% | 1016.3 hPa | 0 mm | - | 222 W/m² | - |
| 1787480447 | 16.67° C | 65% | 1016.3 hPa | 0 mm | - | 209 W/m² | - |
| 1787480147 | 16.67° C | 65% | 1016.3 hPa | 0 mm | - | 159 W/m² | - |
| 1787479847 | 16.67° C | 66% | 1016.3 hPa | 0 mm | - | 109 W/m² | - |
| 1787479547 | 16.67° C | 65% | 1015.9 hPa | 0 mm | - | 120 W/m² | - |
| 1787479247 | 16.67° C | 66% | 1016.3 hPa | 0 mm | - | 127 W/m² | - |
| 1787478948 | 16.67° C | 68% | 1016.3 hPa | 0 mm | - | 122 W/m² | - |
| 1787478648 | 16.67° C | 68% | 1016.3 hPa | 0 mm | - | 88 W/m² | - |
| 1787478347 | 16.67° C | 66% | 1016.3 hPa | 0 mm | - | 78 W/m² | - |
| 1787478050 | 17.22° C | 66% | 1016.3 hPa | 0 mm | - | 171 W/m² | - |
| 1787477748 | 16.67° C | 66% | 1016.6 hPa | 0 mm | - | 243 W/m² | - |
| 1787477447 | 16.67° C | 68% | 1016.3 hPa | 0 mm | - | 190 W/m² | - |
* Rain latest hour (hover to see other rain measurements)
** Current wind speed in m/s (hover to see current wind gust speed)